Location: Jetmore Oil Field
(38.1181°N, 99.9337°W)
Time: 22:42:27
(UTC+00:00)

Tianhe-1 - Visible Passes

Search period start: 20 June 2021 00:00
Search period end: 30 June 2021 00:00
Orbit: 375 x 386 km, 41.5° (Epoch: 20 June)

Date Brightness Start Highest point End Pass type
(mag) Time Alt. Az. Time Alt. Az. Time Alt. Az.
20 Jun 3.4 08:58:02 16° ESE 08:58:02 16° ESE 08:59:12 10° E visible
20 Jun 1.1 10:30:09 10° WSW 10:33:17 82° NNW 10:36:26 10° ENE visible
21 Jun 1.1 09:31:49 51° SSW 09:32:19 62° SSE 09:35:27 10° ENE visible
22 Jun 3.6 08:33:28 16° E 08:33:28 16° E 08:34:20 10° E visible
22 Jun 1.5 10:05:35 15° W 10:08:06 58° NNW 10:11:13 10° ENE visible
23 Jun 1.1 09:07:14 79° NE 09:07:14 79° NE 09:10:14 10° ENE visible
23 Jun 2.2 10:41:00 10° WNW 10:44:01 42° N 10:47:03 10° ENE visible
24 Jun 4.0 08:08:52 12° ENE 08:08:52 12° ENE 08:09:12 10° ENE visible
24 Jun 1.9 09:40:59 19° WNW 09:42:55 47° N 09:46:00 10° ENE visible
25 Jun 2.2 08:42:38 42° NE 08:42:38 42° NE 08:44:59 10° ENE visible
25 Jun 2.2 10:15:50 10° WNW 10:18:52 43° N 10:21:54 10° ENE visible
26 Jun 2.2 09:16:28 26° WNW 09:17:46 42° N 09:20:48 10° ENE visible
27 Jun 3.3 08:18:16 23° ENE 08:18:16 23° ENE 08:19:43 10° ENE visible
27 Jun 1.9 09:50:37 10° WNW 09:53:41 50° N 09:56:46 10° E visible
28 Jun 2.1 08:52:20 42° NNW 08:52:35 43° N 08:55:37 10° ENE visible
28 Jun 1.0 10:26:21 10° WNW 10:29:29 82° SSW 10:32:38 10° ESE visible
29 Jun 1.4 09:26:42 23° WNW 09:28:27 65° NNE 09:31:35 10° E visible
